Location: Newark
(52.3500°N, 175.9667°E)
Time: 22:13:01
(UTC+00:00)

Transit 4A - Pass Details

Date: 20 April 2021
Orbit: 871 x 974 km, 66.8° (Epoch: 16 May)

Event Time Altitude Azimuth Distance (km) Brightness Sun altitude
Rises 18:22:05 0° 318° (NW) 3,549 10.6 10.4°
Reaches altitude 10° 18:24:50 10° 326° (NNW) 2,589 10.0 10.8°
Maximum altitude 18:30:22 38° 34° (NE) 1,340 9.4 11.6°
Drops below altitude 10° 18:35:47 10° 102° (ESE) 2,531 12.2 12.5°
Sets 18:38:26 0° 110° (ESE) 3,460 12.2 12.9°
